K5SVV Weather Reports


time (UTC)temp
C
wind
direction
speed
KPH
gust
KPH
rain 1hr
cm
rain 24hr
cm
rain mn
cm
humidity
%
barometer
mb
20260509135030 22 313 8.0 11.3 0.00 0.00 0.00 85 1010.2
20260509134526 22 327 11.3 12.9 0.00 0.00 0.00 85 1009.8
20260509134024 22 269 9.7 12.9 0.00 0.00 0.00 85 1009.9
20260509133520 22 301 3.2 4.8 0.00 0.00 0.00 85 1009.6
20260509133018 22 324 11.3 14.5 0.00 0.00 0.00 85 1009.7
20260509132517 22 341 4.8 6.4 0.00 0.00 0.00 87 1009.6
20260509132015 22 350 3.2 4.8 0.00 0.00 0.00 88 1009.5
20260509131510 22 313 6.4 9.7 0.00 0.00 0.00 88 1009.5
20260509131007 22 329 0.0 0.0 0.00 0.00 0.00 91 1009.4
20260509130502 22 327 0.0 0.0 0.00 0.00 0.00 92 1009.1
20260509130000 21 297 0.0 0.0 0.00 0.00 0.00 94 1009.3
20260509125456 21 284 0.0 0.0 0.00 0.00 0.00 96 1009.0
20260509124952 21 236 0.0 0.0 0.00 0.00 0.00 97 1009.3
20260509124449 20 210 0.0 0.0 0.00 0.00 0.00 97 1009.2
20260509123947 20 210 0.0 0.0 0.00 0.00 0.00 97 1009.4
20260509123444 20 210 0.0 0.0 0.00 0.00 0.00 97 1009.2
20260509122939 20 210 0.0 0.0 0.00 0.00 0.00 97 1009.0
20260509122437 20 209 0.0 0.0 0.00 0.00 0.00 97 1009.2
20260509121933 20 208 0.0 0.0 0.00 0.00 0.00 97 1009.5
20260509121430 20 209 0.0 0.0 0.00 0.00 0.00 97 1009.2
20260509120928 20 209 0.0 0.0 0.00 0.00 0.00 97 1009.5
20260509120426 20 209 0.0 0.0 0.00 0.00 0.00 97 1009.6
20260509115924 20 208 0.0 0.0 0.00 0.00 0.00 97 1009.5
20260509115421 20 235 0.0 0.0 0.00 0.00 0.00 97 1009.5
20260509114919 20 236 0.0 0.0 0.00 0.00 0.00 97 1009.7
20260509114417 20 242 0.0 0.0 0.00 0.00 0.00 97 1009.7
20260509113916 20 228 0.0 0.0 0.00 0.00 0.00 97 1009.6
20260509113413 20 242 0.0 0.0 0.00 0.00 0.00 97 1009.5
20260509112910 20 243 0.0 0.0 0.00 0.00 0.00 97 1009.4
20260509112407 20 246 0.0 0.0 0.00 0.00 0.00 97 1009.5
20260509111904 20 243 0.0 0.0 0.00 0.00 0.00 97 1009.2
20260509111400 20 242 0.0 0.0 0.00 0.00 0.00 98 1009.3
20260509110859 20 244 0.0 0.0 0.00 0.00 0.00 98 1009.0
20260509110354 20 245 0.0 0.0 0.00 0.00 0.00 98 1009.4
20260509105853 20 246 0.0 0.0 0.00 0.00 0.00 98 1009.0
20260509105350 20 313 1.6 3.2 0.00 0.00 0.00 98 1009.1
20260509104847 20 327 11.3 20.9 0.00 0.00 0.00 98 1009.2
20260509104343 20 327 1.6 3.2 0.00 0.00 0.00 98 1009.0
20260509103841 20 336 11.3 14.5 0.00 0.00 0.00 98 1008.7
20260509103338 20 227 0.0 0.0 0.00 0.00 0.00 98 1007.7
20260509102837 20 210 9.7 12.9 0.00 0.00 0.00 98 1007.4
20260509102334 20 192 9.7 14.5 0.00 0.00 0.00 98 1007.0
20260509101830 20 212 8.0 11.3 0.00 0.00 0.00 98 1007.1
20260509101326 20 256 16.1 22.5 0.00 0.00 0.00 98 1007.0
20260509100824 20 200 11.3 12.9 0.00 0.00 0.00 98 1007.0
20260509100321 20 193 4.8 6.4 0.00 0.00 0.00 98 1006.6
20260509095818 20 194 6.4 12.9 0.00 0.00 0.00 98 1006.7
20260509095315 20 190 9.7 12.9 0.00 0.00 0.00 98 1006.4
20260509094812 20 196 9.7 12.9 0.00 0.00 0.00 97 1006.6
20260509094309 20 206 9.7 12.9 0.00 0.00 0.00 97 1006.7
20260509093806 20 201 9.7 11.3 0.00 0.00 0.00 97 1007.0
20260509093303 20 181 12.9 16.1 0.00 0.00 0.00 97 1006.7
20260509092802 20 181 9.7 12.9 0.00 0.00 0.00 98 1006.7
20260509092300 20 221 17.7 22.5 0.00 0.00 0.00 97 1006.7
20260509091757 20 188 16.1 20.9 0.00 0.00 0.00 97 1006.9
20260509091254 20 201 12.9 16.1 0.00 0.00 0.00 97 1007.1
20260509090751 20 170 8.0 11.3 0.00 0.00 0.00 97 1007.2
20260509090248 20 198 4.8 14.5 0.00 0.00 0.00 97 1007.4
20260509085746 20 191 8.0 11.3 0.00 0.00 0.00 97 1007.6
20260509085243 20 197 3.2 4.8 0.00 0.00 0.00 97 1007.7
20260509084739 20 190 0.0 0.0 0.00 0.00 0.00 97 1007.8
20260509084236 20 194 3.2 4.8 0.00 0.00 0.00 97 1007.9
20260509083734 20 204 0.0 1.6 0.00 0.00 0.00 97 1007.8
20260509083231 20 177 0.0 0.0 0.00 0.00 0.00 97 1008.6
20260509082727 20 199 0.0 1.6 0.00 0.00 0.00 97 1008.7
20260509082224 20 192 0.0 0.0 0.00 0.00 0.00 96 1008.9
20260509081720 20 199 0.0 0.0 0.00 0.00 0.00 96 1009.0
20260509081218 20 212 0.0 1.6 0.00 0.00 0.00 96 1009.1
20260509080716 20 188 3.2 6.4 0.00 0.00 0.00 96 1009.4
20260509080214 20 210 0.0 1.6 0.00 0.00 0.00 97 1009.6
20260509075712 20 230 0.0 0.0 0.00 0.00 0.00 97 1010.6
20260509075209 20 232 0.0 0.0 0.00 0.00 0.00 97 1010.8
20260509074705 20 235 0.0 0.0 0.00 0.00 0.00 97 1011.0
20260509074203 20 251 0.0 0.0 0.00 0.00 0.00 97 1010.8
20260509073659 20 233 0.0 0.0 0.00 0.00 0.00 97 1010.8
20260509073156 20 237 0.0 0.0 0.00 0.00 0.00 98 1010.8
20260509072652 20 247 0.0 0.0 0.00 0.00 0.00 97 1010.9
20260509072149 20 248 0.0 0.0 0.00 0.00 0.00 97 1010.7
20260509071646 20 238 0.0 0.0 0.00 0.00 0.00 97 1010.5
20260509071143 20 238 0.0 0.0 0.00 0.00 0.00 98 1010.5
20260509070640 20 222 0.0 0.0 0.00 0.00 0.00 98 1010.4
20260509070136 20 210 0.0 0.0 0.00 0.00 0.00 98 1010.8
20260509065632 20 211 0.0 0.0 0.00 0.00 0.00 98 1010.7
20260509065128 20 301 0.0 0.0 0.00 0.00 0.00 98 1010.8
20260509064626 20 302 0.0 0.0 0.00 0.00 0.00 97 1010.9
20260509064124 20 308 0.0 0.0 0.00 0.00 0.00 97 1010.9
20260509063620 20 305 0.0 0.0 0.00 0.00 0.00 97 1010.6
20260509063117 20 323 0.0 0.0 0.00 0.00 0.00 97 1010.5
20260509062614 20 305 0.0 0.0 0.00 0.00 0.00 97 1010.5
20260509062111 20 314 0.0 0.0 0.00 0.00 0.00 97 1010.4
20260509061608 20 334 0.0 0.0 0.00 0.00 0.00 97 1010.4
20260509061105 20 0 0.0 0.0 0.00 0.00 0.00 97 1009.9
20260509060603 20 181 0.0 0.0 0.00 0.00 0.00 97 1009.9
20260509060058 20 181 0.0 0.0 0.00 0.00 0.00 97 1009.9
20260509055554 20 180 0.0 0.0 0.00 0.00 0.00 97 1009.8
20260509055050 20 182 0.0 0.0 0.00 0.00 0.00 96 1009.6
20260509054548 20 192 0.0 0.0 0.00 0.00 0.00 96 1009.4
20260509054045 20 190 0.0 0.0 0.00 0.00 0.00 96 1009.8
20260509053543 20 187 0.0 0.0 0.00 0.00 0.00 96 1009.5
20260509053040 20 187 0.0 0.0 0.00 0.00 0.00 96 1009.7
20260509052538 20 186 0.0 0.0 0.00 0.00 0.00 96 1009.9
20260509052036 20 184 0.0 0.0 0.00 0.00 0.00 96 1009.8
20260509051533 20 180 0.0 0.0 0.00 0.00 0.00 96 1009.7
20260509051030 20 186 0.0 0.0 0.00 0.00 0.00 95 1009.7
20260509050527 20 186 0.0 0.0 0.00 0.00 0.00 95 1009.7
20260509050023 20 180 0.0 0.0 0.00 0.00 0.00 95 1009.7
20260509045520 20 180 0.0 0.0 0.00 0.00 0.00 95 1010.2
20260509045012 20 180 0.0 0.0 0.00 0.00 0.00 94 1009.9
20260509044510 20 180 0.0 0.0 0.00 0.00 0.00 94 1010.2
20260509044007 20 180 0.0 0.0 0.00 0.00 0.00 94 1010.2
20260509043503 20 180 0.0 0.0 0.00 0.00 0.00 94 1009.9
20260509042958 21 180 0.0 0.0 0.00 0.00 0.00 93 1009.9
20260509042455 21 180 0.0 0.0 0.00 0.00 0.00 93 1009.9
20260509041951 21 180 0.0 0.0 0.00 0.00 0.00 93 1009.6
20260509041448 21 180 0.0 0.0 0.00 0.00 0.00 92 1009.6
20260509040946 21 180 0.0 0.0 0.00 0.00 0.00 92 1009.4
20260509040444 21 180 0.0 0.0 0.00 0.00 0.00 92 1009.6
20260509035940 21 180 0.0 0.0 0.00 0.00 0.00 92 1009.5
20260509035437 21 180 0.0 0.0 0.00 0.00 0.00 91 1009.7
20260509034933 21 180 0.0 0.0 0.00 0.00 0.00 91 1009.7
20260509034432 21 180 0.0 0.0 0.00 0.00 0.00 91 1009.6
20260509033928 21 180 0.0 0.0 0.00 0.00 0.00 91 1009.6
20260509033426 21 181 0.0 0.0 0.00 0.00 0.00 91 1009.6
20260509032922 21 185 0.0 0.0 0.00 0.00 0.00 91 1009.4
20260509032420 21 191 0.0 0.0 0.00 0.00 0.00 90 1009.3
20260509031917 21 185 0.0 0.0 0.00 0.00 0.00 90 1009.3
20260509031415 21 168 0.0 0.0 0.00 0.00 0.00 90 1009.1
20260509030912 21 151 0.0 1.6 0.00 0.00 0.00 90 1008.8
20260509030410 21 191 0.0 0.0 0.00 0.00 0.00 90 1008.9
20260509025907 21 185 0.0 0.0 0.00 0.00 0.00 90 1009.1
20260509025402 21 180 0.0 0.0 0.00 0.00 0.00 89 1009.0
20260509024857 21 181 0.0 0.0 0.00 0.00 0.00 89 1009.1
20260509024354 21 181 0.0 0.0 0.00 0.00 0.00 89 1008.8
20260509023851 22 181 0.0 0.0 0.00 0.00 0.00 89 1009.0
20260509023348 22 181 0.0 0.0 0.00 0.00 0.00 89 1009.0
20260509022844 22 181 0.0 0.0 0.00 0.00 0.00 89 1008.8
20260509022342 22 181 0.0 0.0 0.00 0.00 0.00 88 1008.7
20260509021839 22 188 0.0 0.0 0.00 0.00 0.00 88 1008.7
20260509021336 22 184 0.0 0.0 0.00 0.00 0.00 88 1008.5
20260509020834 22 184 0.0 0.0 0.00 0.00 0.00 88 1008.4
20260509020332 22 184 0.0 0.0 0.00 0.00 0.00 88 1008.7
20260509015829 22 165 0.0 0.0 0.00 0.00 0.00 88 1008.3
20260509015327 22 171 0.0 0.0 0.00 0.00 0.00 88 1008.4
20260509014823 22 181 0.0 0.0 0.00 0.00 0.00 88 1008.1
20260509014320 22 181 0.0 0.0 0.00 0.00 0.00 87 1008.3
20260509013817 22 191 0.0 0.0 0.00 0.00 0.00 87 1008.3
20260509013313 22 191 0.0 0.0 0.00 0.00 0.00 87 1008.3
20260509012809 22 191 0.0 0.0 0.00 0.00 0.00 87 1008.4
20260509012307 22 192 0.0 0.0 0.00 0.00 0.00 87 1008.1
20260509011803 22 192 0.0 0.0 0.00 0.00 0.00 86 1008.2
20260509011301 22 193 0.0 0.0 0.00 0.00 0.00 86 1008.4
20260509010758 22 191 0.0 0.0 0.00 0.00 0.00 86 1008.4
20260509010255 22 191 0.0 0.0 0.00 0.00 0.00 86 1008.0
20260509005753 22 181 0.0 0.0 0.00 0.00 0.00 86 1007.8
20260509005251 22 184 0.0 0.0 0.00 0.00 0.00 86 1007.6
20260509004749 22 197 0.0 0.0 0.00 0.00 0.00 86 1007.9
20260509004247 22 206 0.0 0.0 0.00 0.00 0.00 85 1007.9
20260509003745 22 185 0.0 0.0 0.00 0.00 0.00 85 1007.9
20260509003242 22 184 0.0 0.0 0.00 0.00 0.00 85 1008.0
20260509002739 22 184 0.0 0.0 0.00 0.00 0.00 84 1008.0
20260509002237 23 192 0.0 0.0 0.00 0.00 0.00 84 1007.9
20260509001735 23 190 0.0 0.0 0.00 0.00 0.00 83 1007.5
20260509001230 23 162 0.0 0.0 0.00 0.00 0.00 83 1007.8
20260509000728 23 188 0.0 0.0 0.00 0.00 0.00 83 1007.6
20260509000226 23 195 0.0 0.0 0.00 0.00 0.00 83 1007.8
20260508235722 23 183 0.0 0.0 0.00 0.00 0.00 83 1007.9
20260508235218 23 163 1.6 4.8 0.00 0.00 0.00 83 1007.7
20260508234716 23 197 0.0 0.0 0.00 0.00 0.00 83 1007.8
20260508234212 23 156 0.0 1.6 0.00 0.00 0.00 83 1008.0
20260508233706 23 191 0.0 0.0 0.00 0.00 0.00 82 1007.8
20260508233204 23 185 0.0 0.0 0.00 0.00 0.00 82 1007.9
20260508232701 23 185 0.0 0.0 0.00 0.00 0.00 82 1007.6
20260508232157 23 179 0.0 0.0 0.00 0.00 0.00 83 1007.8
20260508231655 23 177 0.0 0.0 0.00 0.00 0.00 82 1007.8
20260508231152 23 201 3.2 4.8 0.00 0.00 0.00 82 1008.0
20260508230649 23 189 1.6 3.2 0.00 0.00 0.00 82 1008.0
20260508230145 23 187 8.0 9.7 0.00 0.00 0.00 81 1007.7
20260508225643 23 168 1.6 1.6 0.00 0.00 0.00 82 1008.0
20260508225139 23 143 0.0 1.6 0.00 0.00 0.00 82 1007.9
20260508224637 23 169 0.0 1.6 0.00 0.00 0.00 83 1007.8
20260508224134 23 158 6.4 6.4 0.00 0.00 0.00 82 1007.9
20260508223632 23 196 9.7 11.3 0.00 0.00 0.00 81 1008.0
20260508223129 23 193 0.0 0.0 0.00 0.00 0.00 82 1008.1
20260508222626 23 187 0.0 0.0 0.00 0.00 0.00 81 1008.0
20260508222123 23 175 3.2 3.2 0.00 0.00 0.00 80 1008.2
20260508221619 23 110 3.2 3.2 0.00 0.00 0.00 80 1007.9
20260508221115 23 206 0.0 0.0 0.00 0.00 0.00 81 1008.2
20260508220612 23 189 0.0 0.0 0.00 0.00 0.00 81 1008.2
20260508220109 23 165 3.2 6.4 0.00 0.00 0.00 80 1008.5
20260508215605 23 180 0.0 0.0 0.00 0.00 0.00 79 1008.5
20260508215102 23 182 0.0 0.0 0.00 0.00 0.00 79 1008.7
20260508214559 23 155 0.0 1.6 0.00 0.00 0.00 80 1008.8
20260508214056 22 184 0.0 0.0 0.00 0.00 0.00 81 1008.3
20260508213553 22 178 0.0 0.0 0.00 0.00 0.00 81 1008.1
20260508213049 22 195 3.2 14.5 0.00 0.00 0.00 82 1008.0
20260508212545 22 146 6.4 12.9 0.00 0.00 0.00 82 1008.1
20260508212042 22 195 3.2 9.7 0.00 0.00 0.00 82 1008.1
20260508211537 21 126 9.7 16.1 0.00 0.00 0.00 81 1008.5
20260508211034 21 186 3.2 6.4 0.00 0.00 0.00 83 1008.7
20260508210530 21 171 4.8 6.4 0.00 0.00 0.00 83 1008.5
20260508210028 21 172 1.6 4.8 0.00 0.00 0.00 83 1008.7
20260508205525 20 171 8.0 11.3 0.00 0.00 0.00 83 1008.8
20260508205021 20 192 4.8 6.4 0.00 0.00 0.00 84 1009.3
20260508204518 20 182 0.0 0.0 0.00 0.00 0.00 84 1009.6
20260508204014 20 181 0.0 0.0 0.00 0.00 0.00 85 1010.1
20260508203510 20 201 3.2 9.7 0.00 0.00 0.00 84 1010.1
20260508203006 20 179 3.2 4.8 0.00 0.00 0.00 84 1010.4
20260508202503 20 194 9.7 12.9 0.00 0.00 0.00 82 1010.4
20260508202000 20 197 3.2 4.8 0.00 0.00 0.00 82 1010.4
20260508201456 20 206 1.6 3.2 0.00 0.00 0.00 82 1010.3
20260508200953 20 204 0.0 0.0 0.00 0.00 0.00 81 1010.9
20260508200451 20 205 3.2 6.4 0.00 0.00 0.00 81 1010.9
20260508195945 20 195 0.0 1.6 0.00 0.00 0.00 80 1010.8
20260508195443 21 136 9.7 12.9 0.00 0.00 0.00 79 1010.8
20260508194939 21 193 3.2 4.8 0.00 0.00 0.00 77 1010.6
20260508194436 21 143 1.6 3.2 0.00 0.00 0.00 78 1010.2
20260508193933 21 199 0.0 0.0 0.00 0.00 0.00 79 1010.4
20260508193430 21 192 6.4 6.4 0.00 0.00 0.00 78 1010.5
20260508192926 20 194 0.0 0.0 0.00 0.00 0.00 79 1010.6
20260508192423 20 194 0.0 0.0 0.00 0.00 0.00 78 1010.6
20260508191920 21 201 0.0 0.0 0.00 0.00 0.00 78 1010.7
20260508191418 20 147 0.0 0.0 0.00 0.00 0.00 78 1010.6
20260508190914 20 158 0.0 0.0 0.00 0.00 0.00 78 1010.8
20260508190411 20 189 0.0 0.0 0.00 0.00 0.00 78 1011.0
20260508185907 20 186 9.7 11.3 0.00 0.00 0.00 77 1011.1
20260508185405 20 199 0.0 0.0 0.00 0.00 0.00 78 1010.7
20260508184902 20 198 6.4 11.3 0.00 0.00 0.00 77 1010.9
20260508184359 20 181 3.2 4.8 0.00 0.00 0.00 76 1011.2
20260508183856 21 195 0.0 0.0 0.00 0.00 0.00 77 1011.5
20260508183352 20 159 0.0 0.0 0.00 0.00 0.00 77 1011.3
20260508182848 20 169 4.8 6.4 0.00 0.00 0.00 77 1011.3
20260508182345 20 196 0.0 0.0 0.00 0.00 0.00 77 1011.9
20260508181840 20 189 0.0 0.0 0.00 0.00 0.00 76 1011.7
20260508181337 20 178 0.0 0.0 0.00 0.00 0.00 76 1011.8
20260508180834 21 188 1.6 4.8 0.00 0.00 0.00 75 1011.6
20260508180331 21 185 0.0 0.0 0.00 0.00 0.00 74 1011.8
20260508175827 21 163 0.0 0.0 0.00 0.00 0.00 76 1011.7
20260508175324 21 187 0.0 0.0 0.00 0.00 0.00 75 1011.6
20260508174823 21 141 4.8 9.7 0.00 0.00 0.00 74 1011.6
20260508174319 21 137 1.6 4.8 0.00 0.00 0.00 74 1011.9
20260508173816 21 170 0.0 0.0 0.00 0.00 0.00 74 1011.7
20260508173313 21 78 0.0 0.0 0.00 0.00 0.00 74 1011.9
20260508172809 20 173 0.0 0.0 0.00 0.00 0.00 75 1011.9
20260508172307 20 168 0.0 0.0 0.00 0.00 0.00 75 1012.2
20260508171802 20 102 6.4 12.9 0.00 0.00 0.00 74 1012.1
20260508171258 20 188 8.0 11.3 0.00 0.00 0.00 74 1012.2
20260508170755 21 151 0.0 0.0 0.00 0.00 0.00 75 1012.1
20260508170254 20 164 1.6 3.2 0.00 0.00 0.00 76 1012.1
20260508165750 20 148 6.4 9.7 0.00 0.00 0.00 75 1012.3
20260508165248 20 138 9.7 12.9 0.00 0.00 0.00 75 1012.4
20260508164743 21 204 0.0 0.0 0.00 0.00 0.00 74 1012.6
20260508164240 21 156 0.0 1.6 0.00 0.00 0.00 73 1012.3
20260508163738 21 167 1.6 3.2 0.00 0.00 0.00 73 1012.5
20260508163236 21 182 0.0 0.0 0.00 0.00 0.00 75 1012.7
20260508162731 21 184 0.0 0.0 0.00 0.00 0.00 74 1012.7
20260508162228 20 110 0.0 0.0 0.00 0.00 0.00 74 1012.6
20260508161725 20 100 0.0 1.6 0.00 0.00 0.00 76 1012.8
20260508161222 20 164 1.6 3.2 0.00 0.00 0.00 77 1012.9
20260508160721 19 188 0.0 0.0 0.00 0.00 0.00 77 1013.3
20260508160219 20 188 0.0 0.0 0.00 0.00 0.00 77 1013.6
20260508155715 20 168 0.0 0.0 0.00 0.00 0.00 77 1013.4
20260508155212 19 180 0.0 0.0 0.00 0.00 0.00 78 1013.4
20260508154709 19 190 0.0 0.0 0.00 0.00 0.00 77 1013.4
20260508154206 18 156 0.0 0.0 0.00 0.00 0.00 78 1013.6
20260508153702 18 176 0.0 0.0 0.00 0.00 0.00 79 1013.6
20260508153200 18 176 0.0 0.0 0.00 0.00 0.00 79 1013.7
20260508152656 18 200 0.0 0.0 0.00 0.00 0.00 79 1013.7
20260508152152 18 217 0.0 0.0 0.00 0.00 0.00 79 1013.6
20260508151648 18 221 1.6 3.2 0.00 0.00 0.00 79 1013.8
20260508151145 18 135 0.0 0.0 0.00 0.00 0.00 80 1013.7
20260508150642 18 135 0.0 0.0 0.00 0.00 0.00 80 1013.8
20260508150139 18 135 1.6 1.6 0.00 0.00 0.00 80 1013.4
20260508145635 18 135 3.2 4.8 0.00 0.00 0.00 79 1013.6
20260508145131 18 135 0.0 0.0 0.00 0.00 0.00 80 1013.7
20260508144629 18 135 0.0 0.0 0.00 0.00 0.00 80 1013.6
20260508144126 18 135 0.0 0.0 0.00 0.00 0.00 80 1013.7
20260508143624 18 135 3.2 4.8 0.00 0.00 0.00 80 1013.7
20260508143120 18 135 0.0 0.0 0.00 0.00 0.00 80 1013.7
20260508142617 18 135 0.0 0.0 0.00 0.00 0.00 80 1013.6
20260508142114 18 135 0.0 0.0 0.00 0.00 0.00 80 1013.5
20260508141610 18 135 0.0 0.0 0.00 0.00 0.00 80 1013.5
20260508141108 18 135 0.0 0.0 0.00 0.00 0.00 81 1013.5
20260508140605 17 136 0.0 0.0 0.00 0.00 0.00 81 1013.6
20260508140101 17 135 0.0 0.0 0.00 0.00 0.00 82 1013.4
20260508135551 17 136 0.0 0.0 0.00 0.00 0.00 81 1013.7